Weather History for Greenwood, SC

Change the Weather History Date:

Friday, December 6, 2013

  Actual Average (KAND) Record (KAND)
Temperature  
Mean Temperature 70 °F -  
Max Temperature 75 °F 56 °F 78 °F (2013)
Min Temperature 64 °F 32 °F 23 °F (2000)
Cooling Degree Days 4    
Growing Degree Days 20 (Base 50)    
Moisture  
Dew Point 62 °F    
Average Humidity 79    
Maximum Humidity 90    
Minimum Humidity 62    
Precipitation  
Precipitation 0.00 in - - ()
Sea Level Pressure  
Sea Level Pressure 30.05 in    
Wind  
Wind Speed 11 mph (SSW)    
Max Wind Speed 18 mph    
Max Gust Speed 26 mph    
Visibility 10 miles    
Events      
Averages and records for this station are not official NWS values.
T = Trace of Precipitation, MM = Missing Value Source: NWS Daily Summary

Daily Weather History Graph

Daily Weather History Graph

Search for Another Location

Airport:

Trip Planner

Search our weather history database for the weather conditions in past years. The results will help you decide how hot, cold, wet, or windy it might be!

Date:

Astronomy

Dec. 06, 2013 Rise Set
Actual Time 7:20 AM EST 5:18 PM EST
Civil Twilight 6:53 AM EST 5:46 PM EST
Nautical Twilight 6:22 AM EST 6:17 PM EST
Astronomical Twilight 5:51 AM EST 6:47 PM EST
Moon 10:31 AM EST (12/6) 9:41 PM EST (12/6)
Length of Visible Light 10h 53m
Length of Day
9h 57m
Waxing Crescent, 19% of the Moon is Illuminated
Dec 6
Waxing Crescent
Dec 9
First Quarter
Dec 17
Full
Dec 25
Last Quarter
Jan 1
New

Hourly Weather History & Observations

Time (EST) Temp. Dew Point Humidity Pressure Visibility Wind Dir Wind Speed Gust Speed Precip Events Conditions
12:56 AM 66.9 °F 63.0 °F 87% 30.05 in 10.0 mi SSW 9.2 mph - N/A   Mostly Cloudy
1:56 AM 66.0 °F 63.0 °F 90% 30.05 in 10.0 mi SSW 10.4 mph - N/A   Clear
2:48 AM 66.2 °F 62.6 °F 88% 30.06 in 10.0 mi SSW 12.7 mph - N/A   Overcast
2:56 AM 66.0 °F 63.0 °F 90% 30.05 in 10.0 mi SW 15.0 mph - N/A   Overcast
3:34 AM 66.2 °F 62.6 °F 88% 30.06 in 10.0 mi SSW 10.4 mph - N/A   Overcast
3:56 AM 66.0 °F 63.0 °F 90% 30.04 in 10.0 mi SSW 12.7 mph - N/A   Mostly Cloudy
4:17 AM 66.2 °F 62.6 °F 88% 30.05 in 10.0 mi SSW 11.5 mph 19.6 mph N/A   Mostly Cloudy
4:27 AM 66.2 °F 62.6 °F 88% 30.05 in 10.0 mi SSW 13.8 mph - N/A   Mostly Cloudy
4:56 AM 66.0 °F 63.0 °F 90% 30.04 in 10.0 mi SSW 11.5 mph - N/A   Overcast
5:11 AM 66.2 °F 62.6 °F 88% 30.05 in 10.0 mi SSW 11.5 mph - N/A   Overcast
5:56 AM 64.9 °F 61.0 °F 87% 30.05 in 10.0 mi SSW 10.4 mph - N/A   Mostly Cloudy
6:56 AM 64.0 °F 60.1 °F 87% 30.06 in 10.0 mi South 10.4 mph - N/A   Partly Cloudy
7:56 AM 64.0 °F 59.0 °F 84% 30.09 in 10.0 mi SSW 6.9 mph - N/A   Mostly Cloudy
8:56 AM 66.0 °F 60.1 °F 81% 30.10 in 10.0 mi SSW 12.7 mph 20.7 mph N/A   Clear
9:56 AM 69.1 °F 60.1 °F 73% 30.11 in 10.0 mi SSW 12.7 mph - N/A   Mostly Cloudy
10:56 AM 69.1 °F 61.0 °F 75% 30.11 in 10.0 mi SSW 13.8 mph 23.0 mph N/A   Overcast
11:56 AM 73.0 °F 62.1 °F 68% 30.09 in 10.0 mi SW 18.4 mph 25.3 mph N/A   Clear
12:56 PM 75.9 °F 62.1 °F 62% 30.05 in 10.0 mi SSW 16.1 mph 26.5 mph N/A   Scattered Clouds
1:56 PM 75.9 °F 63.0 °F 64% 30.03 in 10.0 mi SW 9.2 mph - N/A   Mostly Cloudy
2:56 PM 75.9 °F 62.1 °F 62% 30.02 in 10.0 mi SSW 6.9 mph 17.3 mph N/A   Overcast
3:56 PM 75.9 °F 62.1 °F 62% 30.02 in 10.0 mi South 8.1 mph - N/A   Overcast
4:56 PM 73.9 °F 63.0 °F 68% 30.03 in 10.0 mi South 10.4 mph - N/A   Mostly Cloudy
5:56 PM 72.0 °F 62.1 °F 71% 30.02 in 10.0 mi South 9.2 mph - N/A   Clear
6:56 PM 71.1 °F 63.0 °F 75% 30.03 in 10.0 mi SSW 10.4 mph - N/A   Partly Cloudy
7:56 PM 69.1 °F 63.0 °F 81% 30.02 in 10.0 mi South 9.2 mph - N/A   Clear
8:56 PM 69.1 °F 62.1 °F 78% 30.01 in 10.0 mi SSW 9.2 mph 18.4 mph N/A   Clear
9:56 PM 69.1 °F 62.1 °F 78% 30.01 in 10.0 mi SSW 12.7 mph 19.6 mph N/A   Clear
10:56 PM 70.0 °F 62.1 °F 76% 30.03 in 10.0 mi SSW 11.5 mph - N/A   Clear
11:56 PM 70.0 °F 62.1 °F 76% 30.03 in 10.0 mi SSW 15.0 mph 20.7 mph N/A   Scattered Clouds